Weather in Novosretenka

Russia / Republic of Buryatia     50°43′21″N   107°40′57″E
temp.,
°C
wind,
m/s
gust,
m/s
humid.,
%
clouds,
%
prec.,
mm/h
press.,
hPa
HPBL,
m
30 june, thu
thu3023:00+17nne117984 0.0 100512
02:00+15e22855 0.0 100513
05:00+14ene22905 0.0 100514
08:00+21e22614 0.0 1004301
11:00+26s22440 0.0 1003678
14:00+30sw353662 0.0 10011252
17:00+29w453796 0.0 1000886
20:00+26se11496 0.0 100112
1 july, fri
fri123:00+17ne1183100 1.1 100211
02:00+16ene1189100 3.0 100411
05:00+15sse119374 0.4 100511
08:00+18wnw008895 2.1 1005106
11:00+25sw235444 0.0 1004771
14:00+28ssw334796 0.0 10021348
17:00+29sse224329 0.0 10001063
20:00+25e22614 0.0 100014
2 july, sat
sat223:00+20ne227415 0.0 100111
02:00+17e22870 0.0 100114
05:00+16ene22897 0.0 100214
08:00+23e226320 0.0 1001236
11:00+29e1242100 0.0 1000704
14:00+33se1226100 0.0 9981975
17:00+33w122786 0.0 9961550
20:00+21ssw2364100 0.0 100058
3 july, sun
sun323:00+21nne2258100 0.0 99921
02:00+18nnw2379100 0.0 100178
05:00+17wnw1184100 0.0 100138
08:00+17nnw348987 0.6 1002412
11:00+16nnw3490100 0.5 1003386
14:00+15nw3688100 0.6 1003536
17:00+15nw2488100 0.1 1003379
20:00+16wnw1483100 0.2 1002452
4 july, mon
mon423:00+14nnw2488100 0.0 1001168
02:00+13n2292100 0.0 100039
05:00+13nne2394100 0.8 998106
08:00+14nnw1292100 1.3 998175
11:00+14w1191100 0.8 998250
14:00+14wsw2293100 1.4 998268
17:00+14wsw3592100 0.3 999537
20:00+12wsw3694100 0.4 1000342